Time,TemperatureF,DewpointF,PressureIn,WindDirection,WindDirectionDegrees,WindSpeedMPH,WindSpeedGustMPH,Humidity,HourlyPrecipIn,Conditions,Clouds,dailyrainin,SolarRadiationWatts/m^2,SoftwareType,DateUTC
2013-04-19 00:00:00,66.1,58.3,29.71,South,171,14.0,14.0,76,0.00,,,0.00,0,Wunderground v.1.15,2013-04-19 04:00:00,
2013-04-19 00:10:00,66.2,58.0,29.71,SSW,193,15.0,15.0,75,0.00,,,0.00,0,Wunderground v.1.15,2013-04-19 04:10:00,
2013-04-19 00:20:00,66.0,58.2,29.71,South,174,13.0,20.0,76,0.00,,,0.00,0,Wunderground v.1.15,2013-04-19 04:20:00,
2013-04-19 00:30:00,66.2,58.0,29.71,South,178,13.0,13.0,75,0.00,,,0.00,0,Wunderground v.1.15,2013-04-19 04:30:00,
2013-04-19 00:40:00,66.2,58.0,29.70,South,191,14.0,14.0,75,0.00,,,0.00,0,Wunderground v.1.15,2013-04-19 04:40:00,
2013-04-19 00:50:00,66.1,57.9,29.70,South,170,14.0,21.0,75,0.00,,,0.00,0,Wunderground v.1.15,2013-04-19 04:50:00,
2013-04-19 01:00:00,66.3,58.1,29.70,SSW,199,15.0,15.0,75,0.00,,,0.00,0,Wunderground v.1.15,2013-04-19 05:00:00,
2013-04-19 01:10:00,66.1,57.9,29.69,South,172,12.0,12.0,75,0.00,,,0.00,0,Wunderground v.1.15,2013-04-19 05:10:00,
2013-04-19 01:20:00,66.2,58.0,29.69,South,182,13.0,19.0,75,0.00,,,0.00,0,Wunderground v.1.15,2013-04-19 05:20:00,
2013-04-19 01:30:00,66.5,58.0,29.68,South,188,15.0,15.0,74,0.00,,,0.00,0,Wunderground v.1.15,2013-04-19 05:30:00,
2013-04-19 01:40:00,66.5,58.0,29.68,SSE,167,13.0,13.0,74,0.00,,,0.00,0,Wunderground v.1.15,2013-04-19 05:40:00,
2013-04-19 01:50:00,66.3,57.8,29.67,South,187,11.0,14.0,74,0.00,,,0.00,0,Wunderground v.1.15,2013-04-19 05:50:00,
2013-04-19 02:00:00,66.3,57.8,29.67,SSE,164,10.0,10.0,74,0.00,,,0.00,0,Wunderground v.1.15,2013-04-19 06:00:00,
2013-04-19 02:10:00,66.0,57.8,29.67,SSE,163,10.0,10.0,75,0.00,,,0.00,0,Wunderground v.1.15,2013-04-19 06:10:00,
2013-04-19 02:20:00,65.8,57.7,29.67,South,177,9.0,11.0,75,0.00,,,0.00,0,Wunderground v.1.15,2013-04-19 06:20:00,
2013-04-19 02:30:00,65.6,57.5,29.67,SSE,155,9.0,10.0,75,0.00,,,0.00,0,Wunderground v.1.15,2013-04-19 06:30:00,
2013-04-19 02:40:00,66.0,57.5,29.67,South,170,7.0,7.0,74,0.00,,,0.00,0,Wunderground v.1.15,2013-04-19 06:40:00,
2013-04-19 02:50:00,65.5,57.4,29.67,South,178,5.0,7.0,75,0.00,,,0.00,0,Wunderground v.1.15,2013-04-19 06:50:00,
2013-04-19 03:00:00,65.0,57.2,29.67,South,172,5.0,5.0,76,0.00,,,0.00,0,Wunderground v.1.15,2013-04-19 07:00:00,
2013-04-19 03:10:00,65.0,57.2,29.65,SE,144,5.0,6.0,76,0.00,,,0.00,0,Wunderground v.1.15,2013-04-19 07:10:00,
2013-04-19 03:20:00,65.1,57.3,29.66,South,182,6.0,8.0,76,0.00,,,0.00,0,Wunderground v.1.15,2013-04-19 07:20:00,
2013-04-19 03:30:00,65.3,57.2,29.65,South,178,7.0,10.0,75,0.00,,,0.00,0,Wunderground v.1.15,2013-04-19 07:30:00,
2013-04-19 03:40:00,65.7,57.6,29.65,South,189,9.0,9.0,75,0.00,,,0.00,0,Wunderground v.1.15,2013-04-19 07:40:00,
2013-04-19 03:50:00,65.6,57.1,29.65,South,171,9.0,9.0,74,0.00,,,0.00,0,Wunderground v.1.15,2013-04-19 07:50:00,
2013-04-19 04:00:00,65.8,57.3,29.64,SSE,150,9.0,9.0,74,0.00,,,0.00,0,Wunderground v.1.15,2013-04-19 08:00:00,
2013-04-19 04:10:00,65.9,57.4,29.63,South,172,9.0,9.0,74,0.00,,,0.00,0,Wunderground v.1.15,2013-04-19 08:10:00,
2013-04-19 04:20:00,65.9,57.4,29.63,South,173,9.0,10.0,74,0.00,,,0.00,0,Wunderground v.1.15,2013-04-19 08:20:00,
2013-04-19 04:30:00,65.8,57.3,29.62,SSE,164,11.0,13.0,74,0.00,,,0.00,0,Wunderground v.1.15,2013-04-19 08:30:00,
2013-04-19 04:40:00,65.8,57.3,29.62,South,169,13.0,13.0,74,0.00,,,0.00,0,Wunderground v.1.15,2013-04-19 08:40:00,
2013-04-19 04:50:00,65.8,57.3,29.62,South,177,12.0,12.0,74,0.00,,,0.00,0,Wunderground v.1.15,2013-04-19 08:50:00,
2013-04-19 05:00:00,65.7,57.2,29.62,South,173,14.0,17.0,74,0.00,,,0.00,0,Wunderground v.1.15,2013-04-19 09:00:00,
2013-04-19 05:10:00,65.7,57.2,29.62,SSE,161,14.0,14.0,74,0.00,,,0.00,0,Wunderground v.1.15,2013-04-19 09:10:00,
2013-04-19 05:20:00,65.4,56.9,29.61,South,179,13.0,14.0,74,0.00,,,0.00,0,Wunderground v.1.15,2013-04-19 09:20:00,
2013-04-19 05:30:00,65.3,56.8,29.60,South,170,12.0,12.0,74,0.00,,,0.00,0,Wunderground v.1.15,2013-04-19 09:30:00,
2013-04-19 05:40:00,65.4,56.9,29.60,South,171,14.0,14.0,74,0.00,,,0.00,0,Wunderground v.1.15,2013-04-19 09:40:00,
2013-04-19 05:50:00,65.6,57.1,29.60,SSE,164,16.0,16.0,74,0.00,,,0.00,0,Wunderground v.1.15,2013-04-19 09:50:00,
2013-04-19 06:00:00,65.4,56.9,29.61,South,181,16.0,16.0,74,0.00,,,0.00,0,Wunderground v.1.15,2013-04-19 10:00:00,
2013-04-19 06:10:00,65.3,57.2,29.61,South,175,14.0,16.0,75,0.00,,,0.00,0,Wunderground v.1.15,2013-04-19 10:10:00,
2013-04-19 06:20:00,65.2,57.1,29.60,SSE,156,14.0,18.0,75,0.00,,,0.00,0,Wunderground v.1.15,2013-04-19 10:20:00,
2013-04-19 06:30:00,65.1,57.0,29.60,South,173,14.0,14.0,75,0.00,,,0.00,0,Wunderground v.1.15,2013-04-19 10:30:00,
2013-04-19 06:40:00,65.0,56.9,29.60,SSE,167,13.0,13.0,75,0.00,,,0.00,7,Wunderground v.1.15,2013-04-19 10:40:00,
2013-04-19 06:50:00,65.1,57.0,29.60,South,179,14.0,14.0,75,0.00,,,0.00,14,Wunderground v.1.15,2013-04-19 10:50:00,
2013-04-19 07:00:00,64.9,57.2,29.60,SSE,168,12.0,14.0,76,0.00,,,0.00,19,Wunderground v.1.15,2013-04-19 11:00:00,
2013-04-19 07:10:00,65.1,57.0,29.59,South,173,14.0,15.0,75,0.00,,,0.00,37,Wunderground v.1.15,2013-04-19 11:10:00,
2013-04-19 07:20:00,65.3,57.2,29.59,SSE,165,15.0,16.0,75,0.00,,,0.00,40,Wunderground v.1.15,2013-04-19 11:20:00,
2013-04-19 07:30:00,65.3,57.2,29.58,South,171,14.0,15.0,75,0.00,,,0.00,58,Wunderground v.1.15,2013-04-19 11:30:00,
2013-04-19 07:40:00,65.5,57.4,29.58,South,181,14.0,14.0,75,0.00,,,0.00,76,Wunderground v.1.15,2013-04-19 11:40:00,
2013-04-19 07:50:00,65.6,57.5,29.58,SE,146,12.0,13.0,75,0.00,,,0.00,98,Wunderground v.1.15,2013-04-19 11:50:00,
2013-04-19 08:00:00,65.9,57.7,29.58,SSE,168,12.0,18.0,75,0.00,,,0.00,93,Wunderground v.1.15,2013-04-19 12:00:00,
2013-04-19 08:10:00,66.2,57.7,29.57,SSE,157,13.0,13.0,74,0.00,,,0.00,134,Wunderground v.1.15,2013-04-19 12:10:00,
2013-04-19 08:20:00,66.7,57.8,29.57,South,172,13.0,17.0,73,0.00,,,0.00,130,Wunderground v.1.15,2013-04-19 12:20:00,
2013-04-19 08:30:00,66.7,57.8,29.56,South,190,13.0,15.0,73,0.00,,,0.00,86,Wunderground v.1.15,2013-04-19 12:30:00,
2013-04-19 08:40:00,67.1,57.8,29.56,South,176,14.0,14.0,72,0.00,,,0.00,114,Wunderground v.1.15,2013-04-19 12:40:00,
2013-04-19 08:50:00,67.3,58.0,29.55,South,171,10.0,16.0,72,0.00,,,0.00,151,Wunderground v.1.15,2013-04-19 12:50:00,
2013-04-19 09:00:00,67.5,58.2,29.55,South,185,12.0,12.0,72,0.00,,,0.00,130,Wunderground v.1.15,2013-04-19 13:00:00,
2013-04-19 09:10:00,67.4,58.1,29.54,South,182,13.0,13.0,72,0.00,,,0.00,109,Wunderground v.1.15,2013-04-19 13:10:00,
2013-04-19 09:20:00,67.3,58.0,29.53,South,180,11.0,11.0,72,0.00,,,0.00,86,Wunderground v.1.15,2013-04-19 13:20:00,
2013-04-19 09:30:00,67.3,58.0,29.53,SSE,157,11.0,11.0,72,0.00,,,0.00,69,Wunderground v.1.15,2013-04-19 13:30:00,
2013-04-19 09:40:00,67.4,58.1,29.53,SSE,161,13.0,19.0,72,0.00,,,0.00,81,Wunderground v.1.15,2013-04-19 13:40:00,
2013-04-19 09:50:00,67.5,58.2,29.52,South,176,13.0,13.0,72,0.00,,,0.00,79,Wunderground v.1.15,2013-04-19 13:50:00,
2013-04-19 10:00:00,67.7,58.0,29.51,SSW,193,14.0,14.0,71,0.00,,,0.00,74,Wunderground v.1.15,2013-04-19 14:00:00,
2013-04-19 10:10:00,67.8,58.1,29.51,South,181,13.0,13.0,71,0.00,,,0.00,76,Wunderground v.1.15,2013-04-19 14:10:00,
2013-04-19 10:20:00,68.0,57.8,29.50,South,182,13.0,14.0,70,0.00,,,0.00,93,Wunderground v.1.15,2013-04-19 14:20:00,
2013-04-19 10:30:00,68.1,57.9,29.50,South,174,14.0,14.0,70,0.00,,,0.00,77,Wunderground v.1.15,2013-04-19 14:30:00,
2013-04-19 10:40:00,68.2,58.0,29.49,SSE,161,14.0,14.0,70,0.00,,,0.00,95,Wunderground v.1.15,2013-04-19 14:40:00,
2013-04-19 10:50:00,68.5,58.3,29.49,South,184,13.0,13.0,70,0.00,,,0.00,158,Wunderground v.1.15,2013-04-19 14:50:00,
2013-04-19 11:00:00,69.0,58.4,29.48,SE,136,12.0,12.0,69,0.00,,,0.00,178,Wunderground v.1.15,2013-04-19 15:00:00,
2013-04-19 11:10:00,69.4,58.4,29.48,SSE,157,12.0,19.0,68,0.00,,,0.00,149,Wunderground v.1.15,2013-04-19 15:10:00,
2013-04-19 11:20:00,69.4,58.4,29.48,South,175,15.0,15.0,68,0.00,,,0.00,90,Wunderground v.1.15,2013-04-19 15:20:00,
2013-04-19 11:30:00,69.4,58.4,29.47,South,183,17.0,21.0,68,0.00,,,0.00,114,Wunderground v.1.15,2013-04-19 15:30:00,
2013-04-19 11:40:00,69.7,58.3,29.46,South,172,17.0,17.0,67,0.00,,,0.00,116,Wunderground v.1.15,2013-04-19 15:40:00,
2013-04-19 11:50:00,69.7,58.3,29.46,SSE,168,14.0,18.0,67,0.00,,,0.00,100,Wunderground v.1.15,2013-04-19 15:50:00,
2013-04-19 12:00:00,70.1,58.6,29.44,South,173,15.0,23.0,67,0.00,,,0.00,186,Wunderground v.1.15,2013-04-19 16:00:00,
2013-04-19 12:10:00,70.3,58.8,29.43,SSE,151,15.0,15.0,67,0.00,,,0.00,181,Wunderground v.1.15,2013-04-19 16:10:00,
2013-04-19 12:20:00,70.4,58.9,29.43,SSE,159,13.0,13.0,67,0.00,,,0.00,165,Wunderground v.1.15,2013-04-19 16:20:00,
2013-04-19 12:30:00,70.4,59.3,29.42,SSE,157,14.0,14.0,68,0.00,,,0.00,227,Wunderground v.1.15,2013-04-19 16:30:00,
2013-04-19 12:40:00,70.6,59.5,29.42,South,169,14.0,17.0,68,0.00,,,0.00,295,Wunderground v.1.15,2013-04-19 16:40:00,
2013-04-19 12:50:00,70.7,59.6,29.40,SSE,164,15.0,15.0,68,0.00,,,0.00,237,Wunderground v.1.15,2013-04-19 16:50:00,
2013-04-19 13:00:00,71.5,60.0,29.40,SSE,164,17.0,17.0,67,0.00,,,0.00,295,Wunderground v.1.15,2013-04-19 17:00:00,
2013-04-19 13:10:00,71.3,59.8,29.41,South,188,14.0,14.0,67,0.00,,,0.00,269,Wunderground v.1.15,2013-04-19 17:10:00,
2013-04-19 13:20:00,71.9,60.3,29.40,South,187,13.0,19.0,67,0.00,,,0.00,265,Wunderground v.1.15,2013-04-19 17:20:00,
2013-04-19 13:30:00,71.7,59.7,29.40,South,182,16.0,23.0,66,0.00,,,0.00,149,Wunderground v.1.15,2013-04-19 17:30:00,
2013-04-19 13:40:00,70.2,60.4,29.37,SE,137,16.0,24.0,71,0.00,,,0.00,97,Wunderground v.1.15,2013-04-19 17:40:00,
2013-04-19 13:50:00,69.9,60.1,29.37,SSE,163,16.0,17.0,71,0.00,,,0.00,206,Wunderground v.1.15,2013-04-19 17:50:00,
2013-04-19 14:00:00,70.3,60.4,29.32,SSE,163,16.0,16.0,71,0.00,,,0.00,281,Wunderground v.1.15,2013-04-19 18:00:00,
2013-04-19 14:10:00,71.8,60.7,29.35,South,179,14.0,24.0,68,0.00,,,0.00,462,Wunderground v.1.15,2013-04-19 18:10:00,
2013-04-19 14:20:00,72.5,60.9,29.36,South,186,16.0,21.0,67,0.00,,,0.00,359,Wunderground v.1.15,2013-04-19 18:20:00,
2013-04-19 14:30:00,72.4,60.8,29.35,SSW,198,18.0,18.0,67,0.00,,,0.00,276,Wunderground v.1.15,2013-04-19 18:30:00,
2013-04-19 14:40:00,72.0,60.4,29.35,South,178,18.0,24.0,67,0.00,,,0.00,299,Wunderground v.1.15,2013-04-19 18:40:00,
2013-04-19 14:50:00,72.2,60.6,29.34,SSE,148,15.0,15.0,67,0.00,,,0.00,185,Wunderground v.1.15,2013-04-19 18:50:00,
2013-04-19 15:00:00,72.3,60.3,29.35,SSW,203,17.0,17.0,66,0.00,,,0.00,105,Wunderground v.1.15,2013-04-19 19:00:00,
2013-04-19 15:10:00,68.2,53.3,29.40,West,268,14.0,14.0,59,0.00,,,0.00,63,Wunderground v.1.15,2013-04-19 19:10:00,
2013-04-19 15:20:00,59.3,49.1,29.40,West,278,9.0,9.0,69,0.00,,,0.00,32,Wunderground v.1.15,2013-04-19 19:20:00,
2013-04-19 15:30:00,55.3,46.1,29.42,NW,323,11.0,11.0,71,0.00,,,0.00,54,Wunderground v.1.15,2013-04-19 19:30:00,
2013-04-19 15:40:00,52.8,44.0,29.42,West,275,11.0,13.0,72,0.00,,,0.00,44,Wunderground v.1.15,2013-04-19 19:40:00,
2013-04-19 15:50:00,50.8,43.2,29.43,WNW,299,13.0,13.0,75,0.00,,,0.00,39,Wunderground v.1.15,2013-04-19 19:50:00,
2013-04-19 16:00:00,50.0,42.7,29.45,WNW,288,13.0,13.0,76,0.00,,,0.00,76,Wunderground v.1.15,2013-04-19 20:00:00,
2013-04-19 16:10:00,49.9,42.6,29.46,West,259,11.0,16.0,76,0.00,,,0.00,60,Wunderground v.1.15,2013-04-19 20:10:00,
2013-04-19 16:20:00,49.4,41.8,29.47,NW,325,13.0,14.0,75,0.00,,,0.00,33,Wunderground v.1.15,2013-04-19 20:20:00,
2013-04-19 16:30:00,48.6,42.4,29.49,West,259,12.0,16.0,79,0.00,,,0.01,32,Wunderground v.1.15,2013-04-19 20:30:00,
2013-04-19 16:40:00,47.1,41.9,29.49,NW,325,12.0,12.0,82,0.00,,,0.01,46,Wunderground v.1.15,2013-04-19 20:40:00,
2013-04-19 16:50:00,46.3,41.4,29.52,WNW,290,11.0,11.0,83,0.00,,,0.01,14,Wunderground v.1.15,2013-04-19 20:50:00,
2013-04-19 17:00:00,45.4,41.2,29.52,West,269,11.0,14.0,85,0.07,,,0.03,67,Wunderground v.1.15,2013-04-19 21:00:00,
2013-04-19 17:10:00,44.6,41.0,29.52,West,263,12.0,13.0,87,0.06,,,0.04,137,Wunderground v.1.15,2013-04-19 21:10:00,
2013-04-19 17:20:00,44.2,39.7,29.52,WSW,243,13.0,22.0,84,0.00,,,0.04,37,Wunderground v.1.15,2013-04-19 21:20:00,
2013-04-19 17:30:00,43.6,39.7,29.56,West,276,12.0,14.0,86,0.06,,,0.06,19,Wunderground v.1.15,2013-04-19 21:30:00,
2013-04-19 17:40:00,43.2,39.0,29.55,West,263,14.0,14.0,85,0.07,,,0.07,19,Wunderground v.1.15,2013-04-19 21:40:00,
2013-04-19 17:50:00,42.9,39.0,29.56,NW,321,12.0,14.0,86,0.05,,,0.08,16,Wunderground v.1.15,2013-04-19 21:50:00,
2013-04-19 18:00:00,42.9,39.3,29.56,West,272,13.0,13.0,87,0.05,,,0.08,65,Wunderground v.1.15,2013-04-19 22:00:00,
2013-04-19 18:10:00,42.9,39.0,29.55,WNW,297,11.0,11.0,86,0.00,,,0.08,65,Wunderground v.1.15,2013-04-19 22:10:00,
2013-04-19 18:20:00,43.2,38.7,29.56,NW,320,11.0,16.0,84,0.00,,,0.08,42,Wunderground v.1.15,2013-04-19 22:20:00,
2013-04-19 18:30:00,43.4,38.6,29.57,West,279,11.0,11.0,83,0.00,,,0.08,23,Wunderground v.1.15,2013-04-19 22:30:00,
2013-04-19 18:40:00,43.6,38.2,29.58,West,280,13.0,13.0,81,0.00,,,0.08,21,Wunderground v.1.15,2013-04-19 22:40:00,
2013-04-19 18:50:00,43.7,37.6,29.58,WSW,250,12.0,12.0,79,0.00,,,0.08,30,Wunderground v.1.15,2013-04-19 22:50:00,
2013-04-19 19:00:00,43.7,37.0,29.58,NW,309,11.0,11.0,77,0.00,,,0.08,14,Wunderground v.1.15,2013-04-19 23:00:00,
2013-04-19 19:10:00,43.8,36.7,29.59,WNW,288,11.0,17.0,76,0.00,,,0.08,11,Wunderground v.1.15,2013-04-19 23:10:00,
2013-04-19 19:20:00,43.9,36.8,29.60,SSW,213,13.0,13.0,76,0.00,,,0.08,14,Wunderground v.1.15,2013-04-19 23:20:00,
2013-04-19 19:30:00,43.8,36.4,29.60,West,267,11.0,18.0,75,0.00,,,0.09,12,Wunderground v.1.15,2013-04-19 23:30:00,
2013-04-19 19:40:00,43.8,36.4,29.61,WNW,289,10.0,15.0,75,0.00,,,0.09,5,Wunderground v.1.15,2013-04-19 23:40:00,
2013-04-19 19:50:00,44.1,36.0,29.61,West,260,13.0,13.0,73,0.00,,,0.09,7,Wunderground v.1.15,2013-04-19 23:50:00,
2013-04-19 20:00:00,44.1,36.0,29.63,NW,305,11.0,11.0,73,0.00,,,0.09,9,Wunderground v.1.15,2013-04-20 00:00:00,
2013-04-19 20:10:00,44.1,35.6,29.64,WSW,252,10.0,10.0,72,0.00,,,0.09,0,Wunderground v.1.15,2013-04-20 00:10:00,
2013-04-19 20:20:00,44.1,35.6,29.65,WNW,300,11.0,11.0,72,0.00,,,0.09,0,Wunderground v.1.15,2013-04-20 00:20:00,
2013-04-19 20:30:00,44.1,35.3,29.66,NW,309,11.0,11.0,71,0.00,,,0.09,0,Wunderground v.1.15,2013-04-20 00:30:00,
2013-04-19 20:40:00,44.0,34.8,29.66,NW,306,8.0,8.0,70,0.00,,,0.09,0,Wunderground v.1.15,2013-04-20 00:40:00,
2013-04-19 20:50:00,44.0,34.5,29.67,WSW,244,10.0,10.0,69,0.00,,,0.09,0,Wunderground v.1.15,2013-04-20 00:50:00,
2013-04-19 21:00:00,43.9,34.7,29.69,WNW,302,9.0,9.0,70,0.00,,,0.09,0,Wunderground v.1.15,2013-04-20 01:00:00,
2013-04-19 21:10:00,43.8,34.3,29.69,WSW,252,8.0,8.0,69,0.00,,,0.09,0,Wunderground v.1.15,2013-04-20 01:10:00,
2013-04-19 21:20:00,43.7,34.6,29.70,WNW,287,6.0,6.0,70,0.00,,,0.09,0,Wunderground v.1.15,2013-04-20 01:20:00,
2013-04-19 21:30:00,43.6,34.5,29.71,West,267,8.0,8.0,70,0.00,,,0.09,0,Wunderground v.1.15,2013-04-20 01:30:00,
2013-04-19 21:40:00,43.6,34.1,29.70,West,281,7.0,10.0,69,0.00,,,0.09,0,Wunderground v.1.15,2013-04-20 01:40:00,
2013-04-19 21:50:00,43.5,34.0,29.71,West,265,6.0,6.0,69,0.00,,,0.09,0,Wunderground v.1.15,2013-04-20 01:50:00,
2013-04-19 22:00:00,43.7,33.5,29.71,WNW,290,9.0,9.0,67,0.00,,,0.09,0,Wunderground v.1.15,2013-04-20 02:00:00,
2013-04-19 22:10:00,43.8,33.6,29.71,WNW,288,8.0,8.0,67,0.00,,,0.09,0,Wunderground v.1.15,2013-04-20 02:10:00,
2013-04-19 22:20:00,43.8,33.6,29.71,WNW,293,7.0,9.0,67,0.00,,,0.09,0,Wunderground v.1.15,2013-04-20 02:20:00,
2013-04-19 22:30:00,43.9,33.3,29.72,West,275,8.0,8.0,66,0.00,,,0.09,0,Wunderground v.1.15,2013-04-20 02:30:00,
2013-04-19 22:40:00,43.8,33.2,29.72,WNW,282,6.0,6.0,66,0.00,,,0.09,0,Wunderground v.1.15,2013-04-20 02:40:00,
2013-04-19 22:50:00,43.9,32.9,29.73,SW,216,9.0,11.0,65,0.00,,,0.09,0,Wunderground v.1.15,2013-04-20 02:50:00,
2013-04-19 23:00:00,43.9,32.9,29.73,West,261,9.0,19.0,65,0.00,,,0.09,0,Wunderground v.1.15,2013-04-20 03:00:00,
2013-04-19 23:10:00,43.8,33.2,29.74,WSW,256,8.0,8.0,66,0.00,,,0.09,0,Wunderground v.1.15,2013-04-20 03:10:00,
2013-04-19 23:20:00,43.8,32.4,29.75,SW,228,8.0,8.0,64,0.00,,,0.09,0,Wunderground v.1.15,2013-04-20 03:20:00,
2013-04-19 23:30:00,43.7,32.3,29.74,West,279,9.0,9.0,64,0.00,,,0.09,0,Wunderground v.1.15,2013-04-20 03:30:00,
2013-04-19 23:40:00,43.6,32.2,29.74,NW,309,7.0,7.0,64,0.00,,,0.09,0,Wunderground v.1.15,2013-04-20 03:40:00,
2013-04-19 23:50:00,43.5,32.1,29.74,West,262,6.0,7.0,64,0.00,,,0.09,0,Wunderground v.1.15,2013-04-20 03:50:00,